Regional Weather Roundup
Issued by NWS Sioux Falls, SD

Home | Current Version | Previous Version | Text Only | Print | Product List | Glossary On
Versions: 1 2 3 4 5 6 7 8 9 10 11 12 13 14 15 16 17 18 19 20 21 22 23 24 25 26 27 28 29 30 31 32 33 34 35 36 37 38 39 40 41 42 43 44 45 46 47 48 49 50
000
ASUS43 KFSD 220002
RWRFSD

WEATHER ROUNDUP FOR SE SOUTH DAKOTA/SW MINNESOTA/NW IOWA
NATIONAL WEATHER SERVICE SIOUX FALLS SD
700 PM CDT THU MAY 21 2015

NOTE: "FAIR" INDICATES FEW OR NO CLOUDS BELOW 12,000 FEET WITH NO
SIGNIFICANT WEATHER AND OR OBSTRUCTIONS TO VISIBILITY.


SDZ038>040-050-052>070-220100-
SOUTHEAST SOUTH DAKOTA

CITY           SKY/WX    TMP DP  RH WIND       PRES   REMARKS
BROOKINGS      SUNNY     72  34  25 N15G23    30.11S
CHAMBERLAIN    SUNNY     68  36  30 S7        30.14F
6HR MIN TEMP:  66; 6HR MAX TEMP:  70;

HURON          PTSUNNY   75  38  26 NW3       30.09F
6HR MIN TEMP:  72; 6HR MAX TEMP:  76;

MADISON        FAIR      70  34  26 N13       30.11F
MITCHELL       SUNNY     73  34  23 W12       30.12F
6HR MIN TEMP:  71; 6HR MAX TEMP:  76;

SIOUX FALLS    MOSUNNY   71  36  27 NW10      30.10F
6HR MIN TEMP:  70; 6HR MAX TEMP:  75;

WINNER         FAIR      69  30  23 S6        30.15F
YANKTON        SUNNY     72  39  30 W8        30.12F
$$

MNZ071-072-080-081-089-090-097-098-220100-
SOUTHWEST MINNESOTA

CITY           SKY/WX    TMP DP  RH WIND       PRES   REMARKS
FAIRMONT       SUNNY     72  25  17 NW17      30.06S
JACKSON        SUNNY     72  10   9 N15G22    30.08S
LUVERNE        MOSUNNY   73  28  19 N15G22    30.09F
MARSHALL       SUNNY     72  23  16 N16G23    30.08S
6HR MIN TEMP:  68; 6HR MAX TEMP:  73;

MONTEVIDEO     SUNNY     70  30  23 N14       30.08F
REDWOOD FALLS  SUNNY     71  32  23 NW12G21   30.06S
TRACY          SUNNY     72  25  17 N16       30.09S
WORTHINGTON    SUNNY     70  32  24 N21       30.09S
$$

IAZ001>003-012>014-020>022-031-032-NEZ013-014-SDZ071-220100-
NORTHWEST IOWA

CITY           SKY/WX    TMP DP  RH WIND       PRES   REMARKS
DENISON        SUNNY     72  36  26 NW12G23   30.10F
ESTHERVILLE    SUNNY     71  24  17 NW22      30.06S
SIOUX CITY     SUNNY     75  34  22 NW12      30.12F
6HR MIN TEMP:  71; 6HR MAX TEMP:  76;

SPENCER        MOSUNNY   73  37  27 NW15      30.08S
6HR MIN TEMP:  72; 6HR MAX TEMP:  76;

$$

ABBREVIATIONS USED IN REMARKS
   TC - TEMPERATURE IN CELSIUS
  WCI - WIND CHILL INDEX
   HX - HEAT INDEX
  VSB - VISIBILITY




USA.gov is the U.S. government's official web portal to all federal, state and local government web resources and services.